This is the latest recevied weather packets stored in our database for station/object KC5EZZ-2. If no packets are shown the sender has not sent any weather packets the latest 10 day(s).
| Time | Temp. | Humidity | Pressure | Rain* | Wind** | Luminosity | Snow |
|---|---|---|---|---|---|---|---|
| 1787888321 | 23.89° C | - | - | 0 mm | 0 m/s | - | - |
| 1787888283 | 23.89° C | - | - | 0 mm | 0 m/s | - | - |
| 1787887681 | 23.89° C | - | - | 0 mm | 0 m/s | - | - |
| 1787887479 | 24.44° C | - | - | 0 mm | 1.34 m/s, 180° | - | - |
| 1787887382 | 24.44° C | - | - | 0 mm | 1.34 m/s, 180° | - | - |
| 1787887078 | 24.44° C | - | - | 0 mm | 0 m/s | - | - |
| 1787886778 | 24.44° C | - | - | 0 mm | 0 m/s | - | - |
| 1787886479 | 24.44° C | - | - | 0 mm | 0 m/s | - | - |
| 1787886176 | 24.44° C | - | - | 0 mm | 0 m/s | - | - |
| 1787885877 | 24.44° C | - | - | 0 mm | 0 m/s | - | - |
| 1787885577 | 24.44° C | - | - | 0 mm | 0.45 m/s, 21° | - | - |
| 1787885275 | 24.44° C | - | - | 0 mm | 2.24 m/s, 132° | - | - |
| 1787884975 | 24.44° C | - | - | 0 mm | 2.24 m/s, 86° | - | - |
| 1787884675 | 24.44° C | - | - | 0 mm | 2.68 m/s, 80° | - | - |
| 1787884373 | 24.44° C | - | - | 0 mm | 3.58 m/s, 359° | - | - |
| 1787884073 | 25° C | - | - | 0 mm | 3.13 m/s, 98° | - | - |
| 1787883774 | 25° C | - | - | 0 mm | 0 m/s | - | - |
| 1787883471 | 24.44° C | - | - | 0 mm | 2.68 m/s, 93° | - | - |
| 1787883172 | 25° C | - | - | 0 mm | 1.34 m/s, 100° | - | - |
| 1787882872 | 25° C | - | - | 0 mm | 2.24 m/s, 122° | - | - |
| 1787882570 | 25° C | - | - | 0 mm | 0.45 m/s, 242° | - | - |
| 1787882270 | 25° C | - | - | 0 mm | 0.45 m/s, 293° | - | - |
| 1787881971 | 25° C | - | - | 0 mm | 1.79 m/s, 66° | - | - |
| 1787881668 | 25° C | - | - | 0 mm | 4.02 m/s, 27° | - | - |
| 1787881369 | 25° C | - | - | 0 mm | 3.58 m/s, 11° | - | - |
* Rain latest hour (hover to see other rain measurements)
** Current wind speed in m/s (hover to see current wind gust speed)